Wind_Speed
21 21 21 21 20 21 21 21 21 20 19 18 17 16 15 15 16 16 15 16 16 16 15 14 14 14 14 13 13 13 12 12 12 12 13 14 14 15 15 15 15 15 15 15
23 22 23 23 22 22 21 21 20 20 19 18 18 17 16 17 17 17 17 17 16 15 16 15 14 14 13 13 12 12 12 11 12 13 13 14 14 15 15 15 15 16 15 15
23 23 24 24 23 22 21 21 21 20 20 19 19 19 19 18 17 17 16 17 17 16 16 15 14 13 13 13 12 12 12 11 11 12 13 14 15 15 15 15 15 15 15 16
24 24 25 24 24 23 23 23 22 21 20 21 21 21 20 20 19 18 18 17 17 17 16 16 15 15 14 13 12 12 12 12 12 13 14 14 15 15 15 15 15 16 16 16
25 26 26 25 24 24 24 24 23 23 22 22 22 22 21 21 19 19 19 19 17 17 17 16 16 14 13 13 13 13 13 13 13 13 14 14 15 16 16 16 16 16 16 16
25 26 26 25 24 24 24 25 23 23 23 23 23 23 22 21 20 19 19 19 19 18 18 17 16 15 14 14 14 14 14 14 14 14 14 14 15 16 16 16 16 16 16 16
26 26 26 26 24 23 24 24 23 23 23 24 24 23 22 21 21 21 21 20 20 19 18 17 16 16 15 15 15 15 16 15 15 15 15 15 16 16 16 16 16 16 16 17
27 28 27 25 24 24 24 24 24 24 24 24 25 25 24 23 22 22 21 21 20 20 19 18 17 17 17 17 17 17 17 17 17 17 17 17 17 16 16 15 15 16 16 17
28 28 27 26 26 27 27 27 26 26 25 25 26 26 26 25 24 23 22 22 21 21 20 19 18 18 18 18 18 18 19 18 18 18 18 17 16 16 15 15 14 15 15 16
28 28 28 28 27 27 28 29 28 27 27 26 27 27 27 27 26 26 23 22 22 21 21 20 20 20 19 18 18 19 19 18 18 18 18 17 17 16 15 14 14 14 14 15
29 29 28 28 27 28 28 29 29 29 28 28 28 28 28 27 28 27 25 24 23 22 22 22 22 21 20 19 19 20 19 19 18 18 18 17 17 17 16 15 14 14 15 15
28 28 28 29 29 28 28 28 29 29 30 30 29 29 29 29 28 27 26 26 24 23 24 24 23 22 21 20 20 20 20 20 19 18 18 18 17 18 17 16 15 15 15 15
27 28 28 28 29 29 29 29 29 29 29 29 28 27 28 27 27 27 27 27 26 25 24 24 24 23 22 21 20 21 21 21 20 19 19 19 19 19 18 17 16 15 15 15
26 26 27 27 27 28 28 28 28 28 28 28 28 28 28 27 26 25 26 25 25 25 25 24 24 24 23 22 22 22 22 21 20 20 20 19 19 19 18 17 16 16 16 16
26 27 27 27 27 27 27 27 27 27 27 28 26 27 26 26 25 25 25 25 25 25 24 23 23 23 23 23 23 22 21 21 20 20 20 19 19 18 18 17 17 16 16 16
25 25 26 26 26 27 26 26 26 26 27 27 27 27 26 26 26 25 25 25 25 25 24 24 23 22 23 23 23 22 22 22 21 21 20 19 18 17 17 17 17 16 16 16
25 25 26 26 26 27 26 27 28 28 28 27 27 26 26 25 26 26 25 25 25 24 24 23 23 23 22 22 23 22 22 22 22 22 20 19 18 17 17 17 17 16 15 15
26 26 26 26 26 26 26 26 27 27 26 26 26 26 25 25 25 25 25 25 25 24 24 23 23 23 22 22 22 22 22 21 21 21 21 19 19 18 17 17 16 15 15 14
24 25 24 24 24 24 25 25 25 25 25 25 25 24 24 24 24 24 24 24 24 24 24 24 23 23 23 23 22 22 22 22 21 21 21 21 20 19 18 17 16 16 15 14
24 24 24 24 24 24 24 24 25 25 25 25 24 24 23 22 23 24 24 24 23 24 24 24 24 24 24 24 23 22 21 21 21 21 21 21 20 19 18 18 17 16 16 15
23 23 23 23 22 22 23 23 23 23 23 23 24 24 23 22 22 23 23 24 23 23 24 24 24 25 24 24 23 23 21 21 21 20 20 20 20 19 18 18 18 17 16 16
23 23 22 22 21 21 22 22 23 23 23 23 23 23 23 23 23 23 23 24 24 25 25 24 24 24 24 23 23 22 21 20 20 21 21 20 20 19 19 18 17 17 17 16
23 23 23 23 22 22 23 22 22 22 22 22 22 22 23 23 23 23 22 23 23 23 23 23 22 23 23 23 22 22 22 21 21 21 20 20 20 19 18 18 17 17 17 17
22 22 22 23 23 22 22 22 22 22 21 21 21 22 22 22 23 23 22 22 22 23 22 22 22 22 22 22 22 22 22 22 21 21 20 20 20 19 18 18 18 17 17 17
21 21 21 21 21 21 21 21 21 22 22 21 21 21 21 21 22 22 22 21 21 21 22 23 22 22 21 21 21 21 21 21 21 21 20 20 19 19 19 19 18 18 18 17
20 21 21 20 20 21 21 21 20 20 21 21 21 21 21 21 20 20 20 20 20 21 21 22 22 22 22 22 21 21 21 22 22 21 20 20 19 19 18 18 17 17 16 16
20 20 20 20 20 20 21 20 20 20 20 20 20 19 19 19 19 19 19 19 19 19 20 21 21 21 21 21 22 22 21 22 22 21 20 20 19 19 19 18 18 17 16 16
Wind_Direction
256 259 259 260 262 262 265 268 274 279 282 286 288 289 291 293 296 297 302 304 306 309 309 309 313 315 317 319 322 321 322 322 324 327 331 333 334 335 338 343 343 342 340 342
257 256 256 258 259 262 264 267 271 275 277 280 281 281 284 288 292 295 297 301 306 307 309 310 312 313 315 315 317 320 322 321 323 326 330 332 334 335 337 338 339 338 337 338
259 260 259 258 259 260 262 264 268 271 275 277 278 281 284 287 291 295 297 300 302 303 303 304 304 309 312 312 312 315 318 318 318 321 324 325 327 329 330 334 336 336 335 337
262 261 260 261 260 261 262 264 267 269 272 273 277 280 282 284 286 289 293 296 298 299 298 296 296 297 300 304 308 309 312 312 314 315 319 321 323 326 328 330 332 333 336 336
263 262 261 261 262 263 263 264 266 268 269 271 275 279 280 281 282 283 287 291 293 295 292 290 290 290 292 296 301 304 307 310 311 312 314 317 321 324 325 327 330 332 332 333
263 263 262 262 263 264 264 264 265 266 268 270 274 276 278 279 279 280 284 286 288 289 287 284 283 284 287 292 297 299 301 303 305 309 313 315 318 321 322 325 329 332 334 334
264 264 266 265 264 264 261 262 262 263 267 269 271 273 275 277 278 277 278 282 283 284 286 285 283 283 285 289 292 294 296 298 300 304 308 310 313 316 319 322 326 329 331 333
266 267 267 266 264 261 260 261 263 264 266 267 269 271 272 273 275 274 275 278 278 280 281 282 282 282 284 287 289 291 293 295 297 299 303 305 307 310 315 320 324 328 329 330
267 267 268 267 264 262 261 262 264 264 265 266 267 269 269 269 271 271 271 274 274 276 277 278 279 281 283 285 287 290 292 293 295 296 300 302 303 307 311 315 319 323 328 331
264 265 265 266 264 263 263 262 264 265 264 266 266 267 266 267 267 267 269 268 268 269 271 273 276 279 282 285 285 287 291 289 290 293 297 299 300 303 306 310 314 319 324 329
261 263 263 263 263 261 263 263 262 264 264 263 264 265 265 266 265 266 267 269 267 266 269 272 275 278 279 281 282 284 286 286 287 289 292 294 296 298 299 303 308 314 319 325
262 262 263 263 262 262 264 264 263 263 262 262 264 265 267 268 268 268 269 268 268 267 268 271 273 275 277 278 279 281 282 283 284 284 287 289 291 294 294 297 301 307 313 320
260 260 262 263 264 265 267 267 265 263 263 262 261 262 265 266 265 266 268 268 269 269 269 269 272 274 274 275 277 279 281 281 279 280 283 285 285 288 289 291 294 299 305 312
257 260 262 264 267 267 267 266 265 264 264 262 262 262 266 265 266 268 268 268 268 269 270 270 271 272 273 274 275 277 277 277 277 278 279 282 284 284 284 284 287 291 297 303
255 258 259 262 264 265 265 266 265 263 264 264 264 264 264 263 263 265 266 266 267 269 270 269 270 270 271 273 274 274 273 274 275 275 276 278 280 279 280 282 284 287 291 297
257 258 260 263 265 266 264 264 265 265 265 264 264 265 265 264 263 263 264 264 266 267 268 268 268 269 270 270 270 270 270 271 271 273 274 276 278 277 277 279 282 284 286 292
261 261 262 263 265 265 264 263 265 267 267 267 267 268 268 266 264 262 262 262 262 264 266 267 267 266 267 268 268 268 267 267 269 270 271 273 274 274 276 278 282 286 288 291
263 263 263 264 265 265 264 264 266 265 264 265 266 267 267 266 264 260 259 260 260 261 263 264 264 264 265 266 267 267 265 264 265 266 265 267 269 269 272 275 278 282 286 290
263 263 266 266 265 264 263 263 264 265 264 264 265 266 266 265 263 261 259 259 260 260 260 262 263 263 262 264 266 267 266 265 263 263 265 266 266 266 268 271 274 275 280 284
263 264 267 268 268 267 265 265 265 265 265 264 264 264 265 265 262 261 260 259 259 260 260 261 262 263 264 262 263 264 266 265 262 262 264 266 267 265 265 267 268 270 276 279
264 264 266 266 266 267 265 266 267 266 265 264 263 263 264 264 265 265 263 260 258 260 261 262 261 262 262 261 261 262 263 263 261 261 263 265 267 266 265 265 267 269 272 275
263 263 264 264 264 264 265 266 267 266 265 265 263 262 262 263 264 264 264 262 261 261 261 260 260 261 261 261 260 260 260 261 260 261 262 262 264 265 264 262 266 268 269 271
263 263 264 265 265 264 265 265 265 264 264 266 265 265 263 261 262 262 261 261 260 260 258 258 260 259 259 259 258 258 258 259 260 260 260 261 262 262 262 262 264 265 266 268
265 266 267 268 268 266 264 264 262 261 262 264 264 265 266 264 262 260 260 261 260 259 257 258 260 260 260 258 257 257 256 256 258 259 259 259 259 260 261 263 263 263 265 264
266 266 268 269 266 265 265 265 262 260 261 263 263 263 265 265 264 262 261 260 258 258 256 257 258 258 259 260 258 257 256 255 255 256 256 255 257 258 260 262 261 260 260 259
269 269 268 267 265 265 263 264 263 262 263 264 263 264 265 264 263 262 260 259 258 258 259 258 257 257 258 258 257 256 256 255 253 253 253 255 256 257 259 258 255 255 256 254
269 271 269 266 265 264 263 263 262 262 261 262 261 261 261 261 262 263 263 261 260 260 261 260 258 255 255 256 256 256 255 252 251 251 250 250 250 251 253 255 254 252 250 252
Height
5812 5813 5813 5814 5814 5815 5814 5814 5814 5814 5814 5814 5813 5812 5811 5811 5810 5808 5807 5805 5803 5801 5799 5797 5794 5792 5790 5787 5785 5783 5781 5778 5776 5774 5771 5769 5766 5763 5760 5756 5753 5749 5746 5743
5806 5806 5806 5807 5808 5809 5809 5808 5808 5808 5809 5809 5808 5808 5807 5806 5804 5804 5802 5801 5799 5797 5795 5793 5791 5789 5787 5784 5783 5780 5778 5776 5774 5771 5769 5767 5764 5761 5758 5755 5751 5748 5744 5741
5799 5800 5799 5800 5802 5802 5803 5802 5802 5802 5804 5803 5802 5802 5802 5801 5799 5798 5798 5797 5795 5793 5791 5789 5788 5786 5784 5782 5779 5778 5776 5773 5771 5769 5767 5765 5762 5759 5756 5753 5749 5746 5743 5739
5791 5793 5792 5795 5794 5795 5795 5796 5796 5797 5797 5797 5797 5797 5796 5795 5795 5794 5793 5792 5790 5789 5787 5785 5784 5782 5781 5779 5777 5775 5773 5771 5769 5767 5765 5763 5760 5757 5754 5751 5747 5744 5740 5737
5784 5784 5785 5787 5787 5787 5788 5789 5790 5790 5791 5791 5790 5790 5790 5789 5789 5788 5788 5787 5785 5784 5782 5781 5780 5778 5777 5775 5774 5772 5770 5769 5767 5765 5763 5760 5757 5755 5752 5749 5745 5742 5738 5735
5775 5776 5777 5780 5780 5780 5781 5781 5782 5783 5784 5784 5784 5784 5785 5784 5783 5782 5782 5781 5780 5778 5777 5776 5775 5774 5773 5772 5770 5769 5767 5766 5764 5762 5760 5758 5755 5752 5749 5746 5743 5739 5736 5733
5768 5768 5768 5770 5772 5773 5774 5775 5775 5776 5777 5777 5777 5777 5778 5777 5776 5776 5776 5775 5774 5772 5771 5770 5770 5770 5769 5768 5767 5765 5764 5762 5760 5758 5756 5754 5752 5749 5746 5743 5740 5737 5734 5730
5760 5760 5763 5762 5764 5765 5766 5766 5767 5768 5769 5769 5769 5769 5769 5769 5769 5769 5769 5768 5767 5766 5766 5766 5765 5765 5764 5763 5762 5761 5759 5758 5756 5754 5752 5750 5747 5745 5743 5740 5737 5734 5731 5728
5753 5754 5754 5754 5755 5756 5758 5758 5759 5760 5761 5761 5762 5762 5761 5761 5762 5761 5761 5761 5761 5761 5760 5760 5760 5759 5759 5758 5757 5756 5754 5753 5751 5749 5747 5745 5743 5741 5739 5737 5734 5732 5728 5725
5744 5745 5745 5746 5747 5748 5749 5750 5751 5752 5753 5753 5753 5754 5754 5754 5754 5754 5754 5754 5754 5754 5754 5754 5754 5753 5753 5752 5751 5750 5749 5747 5746 5745 5743 5741 5739 5737 5735 5733 5731 5728 5725 5722
5736 5737 5737 5738 5738 5739 5740 5741 5742 5743 5744 5745 5745 5745 5746 5746 5746 5746 5747 5747 5747 5747 5748 5748 5747 5747 5747 5746 5745 5744 5743 5742 5741 5739 5738 5736 5735 5733 5732 5730 5727 5725 5722 5719
5728 5728 5729 5730 5730 5730 5731 5732 5733 5734 5735 5736 5737 5737 5738 5738 5737 5738 5738 5739 5739 5740 5740 5740 5740 5740 5740 5739 5738 5738 5737 5736 5735 5734 5733 5732 5730 5729 5727 5725 5723 5721 5719 5716
5719 5719 5720 5721 5721 5722 5723 5724 5724 5725 5726 5727 5728 5729 5729 5729 5730 5730 5730 5730 5731 5732 5732 5733 5732 5733 5733 5732 5731 5731 5730 5730 5729 5728 5727 5726 5725 5724 5722 5721 5719 5717 5715 5712
5711 5711 5712 5713 5713 5714 5714 5714 5715 5715 5716 5718 5719 5720 5720 5720 5721 5721 5721 5722 5722 5723 5724 5724 5724 5725 5725 5725 5724 5724 5724 5723 5722 5722 5721 5720 5719 5718 5717 5715 5714 5713 5711 5709
5702 5703 5704 5705 5705 5705 5706 5706 5706 5707 5708 5709 5710 5710 5711 5712 5713 5713 5714 5714 5714 5715 5715 5716 5716 5717 5717 5717 5717 5717 5716 5716 5715 5715 5715 5714 5713 5712 5711 5710 5709 5708 5706 5705
5694 5695 5696 5696 5697 5697 5698 5698 5698 5699 5700 5701 5702 5702 5703 5703 5704 5705 5705 5706 5706 5706 5707 5707 5708 5709 5709 5709 5709 5709 5709 5709 5709 5708 5708 5708 5707 5706 5706 5705 5704 5703 5702 5700
5686 5687 5688 5688 5689 5689 5690 5690 5691 5691 5692 5693 5693 5694 5694 5694 5695 5696 5697 5697 5698 5698 5699 5699 5700 5701 5701 5701 5701 5701 5701 5701 5701 5701 5701 5702 5701 5701 5700 5699 5698 5697 5696 5695
5677 5678 5679 5680 5680 5680 5681 5681 5682 5682 5683 5684 5684 5685 5685 5686 5686 5686 5687 5688 5689 5690 5691 5691 5692 5692 5693 5693 5693 5693 5693 5694 5694 5694 5695 5695 5695 5695 5694 5694 5693 5692 5691 5690
5669 5670 5670 5671 5671 5672 5672 5673 5673 5674 5674 5675 5676 5676 5677 5677 5677 5678 5678 5679 5680 5681 5682 5683 5683 5684 5685 5685 5685 5686 5686 5687 5687 5688 5688 5688 5689 5689 5688 5688 5688 5687 5686 5685
5661 5662 5662 5663 5663 5663 5664 5664 5665 5665 5666 5666 5667 5667 5668 5668 5669 5669 5670 5671 5672 5673 5674 5674 5675 5676 5677 5677 5678 5678 5679 5679 5680 5681 5681 5681 5682 5682 5682 5682 5682 5682 5681 5680
5653 5654 5654 5654 5654 5655 5655 5656 5657 5657 5657 5657 5658 5659 5660 5660 5661 5661 5661 5663 5664 5664 5665 5666 5667 5667 5668 5669 5670 5670 5671 5672 5672 5673 5674 5674 5675 5675 5676 5676 5676 5676 5676 5675
5645 5646 5646 5646 5647 5647 5648 5648 5648 5649 5649 5649 5650 5651 5651 5652 5653 5653 5653 5655 5655 5656 5657 5657 5658 5658 5659 5660 5661 5662 5663 5664 5665 5666 5667 5668 5668 5669 5669 5670 5670 5670 5670 5670
5637 5638 5638 5639 5639 5640 5640 5640 5640 5640 5641 5642 5642 5643 5643 5644 5645 5645 5646 5646 5646 5647 5648 5649 5649 5650 5651 5652 5653 5654 5656 5657 5658 5659 5660 5661 5662 5662 5663 5663 5663 5664 5664 5664
5630 5630 5630 5631 5631 5632 5632 5632 5632 5632 5633 5634 5634 5635 5635 5636 5637 5637 5637 5638 5639 5639 5640 5641 5642 5642 5643 5644 5645 5646 5648 5649 5651 5652 5653 5654 5655 5656 5656 5657 5657 5657 5658 5658
5622 5623 5623 5623 5624 5624 5624 5624 5624 5625 5626 5626 5627 5627 5628 5628 5629 5629 5630 5630 5631 5632 5633 5633 5634 5635 5636 5637 5638 5639 5640 5642 5643 5645 5646 5647 5648 5649 5650 5650 5651 5651 5652 5652
5615 5616 5616 5617 5617 5617 5617 5617 5618 5618 5618 5619 5620 5620 5621 5621 5621 5622 5622 5623 5624 5625 5625 5626 5627 5628 5629 5629 5630 5632 5633 5634 5636 5637 5639 5640 5641 5642 5643 5643 5644 5645 5646 5646
5609 5609 5609 5609 5609 5610 5610 5611 5611 5611 5612 5612 5613 5613 5614 5614 5615 5615 5615 5616 5617 5617 5618 5618 5619 5620 5621 5622 5623 5625 5626 5627 5629 5630 5632 5633 5634 5636 5637 5637 5638 5639 5640 5641